Wind_Speed
20 19 19 17 17 17 17 16 15 14 12 12 11 10 8 7 7 8 8 8 9 7 9 11 11 10 10 11 11 12 8 8 7 6 7 10 8 8 9 11 17 25 29
21 21 21 20 19 18 16 14 13 13 13 12 10 8 7 5 5 6 7 9 13 10 13 9 9 10 10 11 13 14 9 7 9 13 13 12 14 17 19 24 27 30 39
21 21 19 17 16 15 14 13 13 14 13 11 8 5 4 4 3 5 8 11 15 16 16 11 8 10 11 10 12 14 13 9 12 17 11 16 17 25 29 30 32 36 38
21 20 18 15 14 14 13 14 14 13 12 9 5 4 3 1 3 5 5 8 12 12 13 12 9 10 9 11 11 13 17 16 17 19 18 18 17 23 29 32 29 35 35
19 17 15 14 14 13 13 13 12 11 8 6 8 5 3 2 4 3 3 7 13 12 9 9 9 9 10 11 12 17 21 19 21 19 17 18 19 18 24 27 30 32 29
16 15 14 13 12 13 13 13 11 9 7 10 9 5 4 3 4 5 7 9 10 10 8 8 8 8 9 9 12 17 20 26 23 21 16 22 18 24 29 33 32 28 10
14 13 12 12 12 12 12 13 11 8 10 10 8 5 4 3 4 6 7 7 6 7 9 12 13 12 13 14 18 21 21 20 21 24 24 22 25 32 33 30 27 22 20
12 11 11 12 13 13 14 12 10 10 10 11 7 5 4 4 4 5 8 8 8 8 12 15 16 16 16 20 23 21 20 20 21 18 22 25 27 31 34 33 28 27 27
11 10 12 13 15 14 13 10 10 10 11 8 6 5 4 6 6 7 8 8 8 8 9 13 19 19 20 23 27 29 24 22 20 21 24 29 33 37 42 40 29 26 16
10 11 13 14 13 13 13 10 9 9 9 7 7 4 5 7 7 7 7 9 11 11 12 13 15 22 24 25 26 24 25 25 28 27 26 30 33 36 37 28 29 24 20
8 13 14 13 13 12 11 9 9 9 9 7 7 5 5 8 7 7 7 10 12 10 11 13 19 25 24 25 25 23 25 26 31 33 33 31 32 30 26 17 17 16 17
10 14 14 13 11 11 11 9 7 8 9 8 7 5 5 8 9 8 8 10 13 12 12 17 22 26 27 27 26 25 28 30 28 28 25 23 21 21 15 13 14 14 5
12 15 14 13 11 10 10 9 7 7 8 7 7 6 5 8 10 10 11 12 14 14 15 19 21 23 23 23 25 27 30 24 24 24 22 19 18 16 15 14 17 14 8
13 17 14 12 11 9 7 7 7 9 8 8 7 7 6 8 12 15 14 14 16 19 19 20 20 19 20 27 29 25 18 21 24 23 19 18 16 15 15 14 15 14 8
14 17 14 11 10 10 7 6 5 6 6 8 8 9 10 9 13 16 15 15 18 19 22 18 15 17 22 18 15 13 16 17 19 20 18 18 18 16 15 14 13 14 12
15 14 13 12 10 9 9 8 8 7 7 6 7 9 8 9 15 15 15 18 21 24 16 14 14 15 16 15 14 15 17 17 16 16 16 18 18 16 16 15 13 13 13
16 15 13 12 11 10 10 10 10 8 8 8 9 9 9 13 15 15 16 19 23 22 15 14 15 13 14 14 14 14 16 16 14 15 16 17 16 17 16 14 14 13 13
15 17 15 14 12 11 10 10 9 10 9 9 10 11 11 13 14 16 17 21 22 12 12 13 13 13 13 13 14 14 13 14 15 16 16 17 17 18 17 16 15 15 14
15 13 14 13 12 11 9 9 8 7 7 10 11 12 13 15 15 16 19 17 16 14 12 11 11 13 14 14 14 14 14 15 16 16 16 17 18 18 18 17 16 16 15
13 14 15 14 13 14 11 10 9 7 7 10 12 12 17 19 17 21 18 13 13 13 15 15 15 16 16 16 15 14 13 14 15 16 16 17 18 19 19 19 19 18 18
12 10 13 10 12 14 14 13 11 9 8 8 10 13 19 13 13 15 16 15 15 15 15 14 14 15 16 16 15 16 17 17 18 19 18 19 20 21 21 21 21 21 21
12 10 11 10 9 11 13 13 12 11 9 8 7 9 15 13 10 12 15 15 15 14 15 16 16 16 17 17 18 18 19 20 21 22 23 24 24 24 24 25 25 25 25
8 9 9 9 7 6 8 9 10 10 10 9 8 8 14 13 11 12 13 13 14 15 15 16 17 17 18 19 19 20 20 21 22 22 23 23 24 25 25 27 27 27 27
8 6 5 6 6 5 3 3 4 5 5 5 5 6 6 8 9 10 10 10 11 13 14 16 18 20 20 21 21 22 23 23 22 23 25 25 27 28 29 29 30 30 30
15 19 14 11 11 10 10 9 7 6 5 4 2 0 2 3 4 6 7 8 9 11 13 14 16 18 20 23 22 23 24 28 29 26 24 26 28 29 30 31 31 31 32
28 27 18 25 21 20 21 21 21 21 18 16 15 13 12 11 10 9 8 7 6 7 8 9 11 13 15 17 19 23 26 30 32 33 32 30 31 31 33 34 36 35 34
Wind_Direction
129 131 130 130 131 135 139 141 144 149 152 154 161 170 179 197 212 214 221 215 191 221 225 239 217 200 196 191 187 189 188 185 164 136 130 143 132 150 151 150 152 158 165
129 128 125 126 130 131 136 142 148 147 144 151 158 165 182 195 216 223 220 203 182 197 204 239 219 188 187 183 181 184 184 173 162 146 132 124 126 139 143 145 148 154 151
128 124 124 127 133 136 139 143 143 142 148 154 162 183 194 216 233 247 245 227 210 206 213 222 210 181 167 173 175 179 178 168 151 140 123 126 121 134 124 124 127 132 146
132 131 129 134 137 136 137 140 143 149 155 161 171 151 154 148 317 305 281 217 207 199 208 218 206 195 175 173 170 165 162 152 145 135 128 128 128 125 122 116 108 120 120
137 136 135 138 138 138 139 144 148 154 164 177 146 143 101 19 358 29 83 153 163 166 176 191 200 195 195 182 170 164 160 151 145 134 134 132 130 132 125 123 116 118 124
141 141 146 144 145 147 147 147 151 154 151 147 137 126 80 22 49 86 113 137 160 173 177 172 178 175 162 162 170 163 167 155 149 148 146 145 142 130 134 133 131 129 117
148 147 149 150 151 147 149 154 159 158 155 157 137 113 84 50 90 118 124 134 148 174 178 162 144 147 150 149 158 151 152 153 158 158 153 151 146 146 142 137 139 141 139
156 154 156 159 153 151 145 149 155 151 160 157 135 117 99 91 108 132 132 126 126 144 162 160 151 147 149 147 144 136 141 142 149 152 155 149 149 149 147 143 142 129 133
167 163 160 157 155 155 155 153 153 155 158 150 143 124 107 116 122 133 128 133 128 126 145 161 156 151 151 148 139 133 137 138 146 152 152 157 155 155 158 152 137 137 136
171 165 157 155 157 158 160 159 165 156 152 150 142 117 116 127 130 133 136 135 120 118 129 141 154 155 156 157 145 142 133 133 143 144 147 154 156 155 156 153 150 151 147
170 161 155 157 159 162 162 164 166 154 153 152 136 117 121 137 141 130 143 137 128 117 121 132 150 156 156 157 151 147 141 140 143 140 141 146 152 155 154 150 160 161 162
162 157 154 156 159 163 165 166 166 153 152 152 141 123 116 141 146 142 140 139 130 124 121 136 148 155 153 153 152 152 149 139 136 137 139 145 149 153 157 158 155 148 139
161 153 155 156 162 164 162 156 148 153 159 159 160 146 137 146 150 142 134 136 129 122 130 139 144 151 155 156 150 151 143 139 143 143 144 148 154 156 156 162 169 169 83
160 154 154 159 162 161 155 149 152 156 160 165 161 147 144 146 144 145 138 139 139 135 133 136 137 142 149 147 148 145 148 155 156 150 147 148 151 155 161 165 170 179 182
162 159 156 161 163 152 142 145 148 137 150 163 168 163 155 157 164 159 149 146 143 147 140 133 127 128 130 135 143 145 149 152 152 157 158 159 163 164 169 172 176 182 197
161 162 166 165 164 159 151 137 145 149 143 132 140 147 149 157 163 161 162 159 156 152 140 133 134 145 147 148 151 157 162 160 162 166 171 170 173 177 176 181 186 194 204
169 169 170 168 168 164 162 158 143 147 143 132 132 132 143 149 155 157 158 159 161 152 151 153 155 157 157 160 160 163 169 177 176 174 176 180 184 186 185 190 198 204 213
176 174 178 183 180 172 170 167 156 156 156 149 147 145 144 154 158 160 160 161 163 172 169 165 167 170 170 173 173 176 176 178 182 184 187 188 190 193 197 206 210 217 224
176 177 186 187 182 175 167 166 168 155 144 151 150 153 151 155 157 161 166 168 174 182 180 181 181 185 185 189 189 190 190 191 191 194 199 199 199 202 211 218 226 232 237
185 188 182 183 179 178 177 177 171 167 156 154 165 163 161 160 160 168 176 182 186 187 188 191 194 198 201 203 204 202 202 204 202 202 204 204 205 210 219 225 230 234 234
186 187 186 186 188 190 189 188 184 181 181 170 170 181 181 170 178 184 192 197 197 199 198 196 195 196 197 200 202 205 208 211 212 211 212 213 215 220 226 232 238 241 244
181 186 185 199 196 193 200 197 193 193 190 185 176 189 194 187 190 193 203 209 211 210 209 206 206 206 207 207 207 208 209 211 213 215 217 220 223 227 231 236 239 240 241
172 181 186 187 195 198 192 202 207 211 209 201 190 186 195 208 217 217 217 216 214 213 214 216 218 220 220 221 220 219 220 222 223 223 225 229 232 235 237 239 241 242 245
94 120 148 160 166 176 190 197 218 227 233 223 203 211 216 226 239 248 249 246 242 239 234 232 231 229 228 227 228 229 230 231 230 230 230 233 236 239 239 241 243 247 251
69 83 81 87 104 105 97 83 76 74 73 68 69 28 254 259 273 283 283 272 263 256 253 250 250 252 251 247 247 247 247 247 240 238 238 240 242 244 244 246 249 252 252
57 61 62 79 71 82 84 79 73 70 68 61 59 57 57 56 49 38 21 358 324 299 288 279 274 273 272 272 270 265 261 260 261 262 256 255 256 254 253 251 253 253 255
Height
675 680 685 691 695 700 705 709 713 717 721 725 729 732 733 735 735 736 738 739 740 741 742 746 747 748 751 753 755 757 760 762 762 771 775 778 780 781 783 785 788 792 797
680 684 689 694 699 703 707 711 715 719 722 726 729 731 732 733 734 734 735 736 736 737 740 743 744 745 748 751 754 757 759 761 762 768 774 778 780 782 784 786 790 795 799
684 688 692 697 701 705 709 712 716 720 723 726 728 730 731 732 732 732 731 730 731 735 738 741 742 743 746 749 752 755 758 762 764 769 774 778 782 784 786 790 794 799 806
687 691 696 700 703 707 710 713 718 721 724 726 728 729 730 731 729 728 727 727 730 734 737 739 740 742 743 747 750 753 756 761 765 770 775 779 783 787 789 792 800 805 810
690 694 699 703 705 708 712 715 718 722 724 726 728 729 730 729 728 726 726 727 730 732 736 737 739 742 743 745 748 751 755 759 765 770 775 780 785 788 792 798 803 809 818
692 697 701 704 707 710 713 716 719 722 724 725 728 729 730 729 728 727 728 729 732 734 735 737 738 741 743 745 748 752 755 757 763 768 774 779 785 789 794 799 806 813 822
694 699 702 705 708 711 714 717 721 723 724 726 728 729 730 729 729 729 730 731 733 733 734 736 739 741 743 746 749 753 758 762 765 767 772 779 784 788 794 801 808 814 819
695 699 702 706 709 713 716 719 721 723 725 727 729 730 731 730 730 730 732 732 733 734 735 736 738 741 744 747 751 755 760 765 768 771 776 780 786 792 796 802 808 813 822
695 699 702 706 710 713 717 719 721 723 726 728 729 730 731 731 731 732 733 734 735 735 736 738 739 742 746 749 751 755 761 766 772 775 779 782 787 792 796 803 812 817 825
695 699 702 706 710 713 717 719 721 723 726 728 730 730 731 732 733 734 735 735 736 737 738 740 742 744 748 751 754 757 761 768 772 778 783 788 793 798 803 808 812 819 825
695 699 703 708 711 714 717 719 721 723 726 728 730 732 732 733 734 736 737 738 738 740 741 742 744 747 750 754 757 761 764 769 775 780 786 792 798 803 809 815 818 821 823
696 699 704 708 711 715 717 719 720 723 726 729 731 733 733 734 736 737 739 740 741 743 745 746 749 752 754 758 761 765 770 774 779 784 790 796 802 807 812 816 819 823 824
696 700 704 708 712 715 716 718 720 723 727 729 731 733 734 735 737 739 741 743 745 747 749 751 753 756 759 762 766 770 775 779 783 787 793 799 804 809 813 816 819 822 823
696 700 704 708 712 715 717 718 720 723 726 729 731 733 735 736 737 740 742 745 748 751 754 756 758 761 764 766 771 776 779 783 785 790 796 801 806 810 813 816 819 823 826
696 700 704 708 712 715 718 719 720 723 725 728 730 732 734 737 739 741 743 746 750 753 756 759 762 765 769 772 776 779 782 785 788 793 797 801 805 809 813 816 819 821 823
695 700 703 707 711 715 718 720 721 724 726 727 729 731 734 736 739 742 745 748 751 756 759 762 765 768 771 775 777 780 784 787 790 793 797 800 803 807 810 814 816 818 820
693 698 702 706 710 714 717 719 721 725 726 728 730 732 735 737 740 743 746 750 754 757 760 764 767 770 772 775 778 781 783 787 790 793 796 799 802 805 809 811 814 816 817
691 695 700 704 708 712 716 718 720 723 727 729 731 733 736 738 742 745 748 752 756 759 762 765 767 770 773 775 778 781 783 786 789 792 795 797 800 803 806 808 810 811 813
689 694 699 702 707 710 714 717 719 722 725 728 731 735 737 740 743 746 749 753 756 758 761 764 766 769 771 773 776 779 782 784 787 790 793 795 798 800 802 804 806 807 808
688 692 696 701 705 709 712 716 719 722 725 727 730 733 735 739 743 745 749 752 755 757 759 762 764 767 769 771 774 777 779 782 785 787 789 792 794 797 798 799 800 800 800
687 691 695 699 703 706 709 713 716 720 723 725 728 731 732 737 741 744 747 749 751 753 756 758 761 763 765 768 770 773 775 777 779 782 784 786 789 790 792 792 793 793 793
685 690 693 697 701 704 708 711 714 717 720 723 726 729 732 735 737 740 743 745 747 750 752 754 757 759 761 763 765 767 768 770 772 774 776 778 781 782 783 784 784 784 784
685 689 692 696 700 704 707 710 713 716 718 721 724 727 729 732 734 736 738 740 742 745 747 750 752 754 756 758 759 761 763 764 766 768 770 772 773 774 775 775 775 775 775
688 691 694 697 700 703 706 709 712 714 717 720 723 726 729 731 733 734 736 738 740 742 743 744 745 747 749 751 752 754 755 757 759 760 762 763 764 765 766 765 765 765 765
695 695 698 701 701 704 708 711 713 715 717 720 723 725 727 729 731 733 734 736 737 738 740 741 742 743 745 747 748 749 750 750 751 753 755 755 755 756 756 756 756 755 755
699 697 708 705 709 710 713 716 719 720 722 725 726 728 729 730 732 733 734 735 735 735 736 737 738 740 741 742 742 742 743 744 744 745 748 749 748 747 745 744 744 743 742